GW1213 Weather Reports


Display with metric or nautical units.
time (UTC)temp
F
wind
direction
speed
MPH
gust
MPH
rain 1hr
in
rain 24hr
in
rain mn
in
humidity
%
barometer
mb
20260903021038 75 0 0.0 0.0 0.00 0.00 0.00 91 1016.0
20260903020537 75 0 0.0 0.0 0.00 0.00 0.00 91 1016.2
20260903020059 75 0 0.0 0.0 0.00 0.00 0.00 90 1016.3
20260903015538 75 0 0.0 0.0 0.00 0.00 0.00 90 1016.4
20260903015036 75 0 0.0 0.0 0.00 0.00 0.00 91 1016.4
20260903014601 75 0 0.0 0.0 0.00 0.00 0.00 91 1016.5
20260903014045 75 0 0.0 0.0 0.00 0.00 0.00 90 1016.6
20260903013538 75 0 0.0 0.0 0.00 0.00 0.00 90 1016.5
20260903013057 75 0 0.0 0.0 0.00 0.00 0.00 90 1016.5
20260903012541 75 0 0.0 0.0 0.00 0.00 0.00 90 1016.4
20260903012035 75 0 0.0 0.0 0.00 0.00 0.00 90 1016.3
20260903011606 76 0 0.0 0.0 0.00 0.00 0.00 89 1016.4
20260903011038 76 0 0.0 0.0 0.00 0.00 0.00 89 1016.4
20260903010542 76 0 0.0 0.0 0.00 0.00 0.00 89 1016.7
20260903010058 76 0 0.0 0.0 0.00 0.00 0.00 88 1016.7
20260903005539 76 0 0.0 0.0 0.00 0.00 0.00 88 1016.7
20260903005036 76 0 0.0 0.0 0.00 0.00 0.00 88 1016.8
20260903004609 76 0 0.0 0.0 0.00 0.00 0.00 88 1016.6
20260903004038 76 0 0.0 0.0 0.00 0.00 0.00 88 1016.6
20260903003537 76 0 0.0 0.0 0.00 0.00 0.00 88 1016.7
20260903003059 76 0 0.0 0.0 0.00 0.00 0.00 87 1016.4
20260903002535 76 0 0.0 0.0 0.00 0.00 0.00 87 1016.3
20260903002038 76 0 0.0 0.0 0.00 0.00 0.00 87 1016.2
20260903001602 76 0 0.0 0.0 0.00 0.00 0.00 87 1016.1
20260903001040 77 0 0.0 0.0 0.00 0.00 0.00 87 1016.4
20260903000537 77 0 0.0 0.0 0.00 0.00 0.00 86 1016.3
20260903000059 77 0 0.0 0.0 0.00 0.00 0.00 86 1016.2
20260902235536 77 0 0.0 0.0 0.00 0.00 0.00 85 1016.3
20260902235035 77 0 0.0 0.0 0.00 0.00 0.00 86 1016.4
20260902234557 77 0 0.0 0.0 0.00 0.00 0.00 86 1016.1
20260902234035 77 0 0.0 0.0 0.00 0.00 0.00 85 1015.9
20260902233535 77 0 0.0 0.0 0.00 0.00 0.00 84 1016.1
20260902233104 77 0 0.0 0.0 0.00 0.00 0.00 84 1016.3
20260902232537 77 0 0.0 0.0 0.00 0.00 0.00 84 1016.6
20260902232038 78 0 0.0 0.0 0.00 0.00 0.00 84 1016.6
20260902231607 78 0 0.0 0.0 0.00 0.00 0.00 84 1016.7
20260902231038 78 0 0.0 0.0 0.00 0.00 0.00 84 1016.7
20260902230537 78 0 0.0 0.0 0.00 0.00 0.00 84 1016.7
20260902230105 78 0 0.0 0.0 0.00 0.00 0.00 82 1017.0
20260902225540 78 0 0.0 0.0 0.00 0.00 0.00 82 1017.0
20260902225041 78 0 0.0 0.0 0.00 0.00 0.00 81 1016.9
20260902224558 78 0 0.0 0.0 0.00 0.00 0.00 81 1016.9
20260902224035 78 0 0.0 0.0 0.00 0.00 0.00 81 1017.0
20260902223535 78 0 0.0 0.0 0.00 0.00 0.00 82 1017.0
20260902223114 78 0 0.0 2.0 0.00 0.00 0.00 82 1017.0
20260902222534 78 0 0.0 3.0 0.00 0.00 0.00 81 1017.2
20260902222038 78 0 0.0 4.0 0.00 0.00 0.00 81 1017.0
20260902221601 78 0 1.0 4.0 0.00 0.00 0.00 81 1017.1
20260902221041 78 78 0.0 3.0 0.00 0.00 0.00 80 1017.0
20260902220538 78 79 0.0 3.0 0.00 0.00 0.00 81 1016.7
20260902215535 78 0 0.0 1.0 0.00 0.00 0.00 83 1016.3
20260902215037 78 0 0.0 1.0 0.00 0.00 0.00 81 1016.5
20260902214557 78 0 0.0 3.0 0.00 0.00 0.00 81 1016.5
20260902214035 78 0 0.0 3.0 0.00 0.00 0.00 79 1016.6
20260902213538 78 0 0.0 0.0 0.00 0.00 0.00 80 1016.3
20260902213107 79 0 0.0 0.0 0.00 0.00 0.00 81 1016.3
20260902212536 78 0 0.0 0.0 0.00 0.00 0.00 79 1016.6
20260902212038 78 0 0.0 1.0 0.00 0.00 0.00 80 1016.6
20260902211600 78 0 0.0 3.0 0.00 0.00 0.00 80 1016.8
20260902211035 78 0 0.0 6.0 0.00 0.00 0.00 80 1016.9
20260902210541 79 55 1.0 6.0 0.00 0.00 0.00 79 1016.8
20260902210100 79 69 0.0 10.0 0.00 0.00 0.00 80 1016.7
20260902205537 79 0 3.0 10.0 0.00 0.00 0.00 79 1017.3
20260902205037 79 41 2.0 10.0 0.00 0.00 0.00 78 1017.2
20260902204635 80 65 4.0 10.0 0.00 0.00 0.00 77 1017.3
20260902204035 80 67 4.0 11.0 0.00 0.00 0.00 77 1017.2
20260902203538 80 66 6.0 11.0 0.00 0.00 0.00 76 1017.1
20260902203104 81 93 5.0 11.0 0.00 0.00 0.00 75 1016.9
20260902202538 81 74 3.0 9.0 0.00 0.00 0.00 76 1017.1
20260902202038 81 37 4.0 12.0 0.00 0.00 0.00 74 1017.4
20260902201601 81 42 5.0 12.0 0.00 0.00 0.00 74 1017.3
20260902201040 81 70 1.0 8.0 0.00 0.00 0.00 75 1017.4
20260902200537 81 63 4.0 9.0 0.00 0.00 0.00 74 1017.1
20260902200059 82 78 3.0 11.0 0.00 0.00 0.00 74 1017.3
20260902195537 82 78 3.0 12.0 0.00 0.00 0.00 74 1017.3
20260902195037 83 51 3.0 12.0 0.00 0.00 0.00 74 1017.5
20260902194557 84 44 4.0 11.0 0.00 0.00 0.00 72 1017.7
20260902194039 84 314 3.0 13.0 0.00 0.00 0.00 71 1017.5
20260902193537 85 70 5.0 21.0 0.00 0.00 0.00 70 1017.3
20260902193105 85 84 6.0 21.0 0.00 0.00 0.00 69 1017.8
20260902192537 88 331 10.0 21.0 0.00 0.00 0.00 65 1017.5
20260902192036 90 86 3.0 10.0 0.00 0.00 0.00 67 1016.9
20260902191603 90 21 4.0 9.0 0.00 0.00 0.00 67 1016.6
20260902191037 90 17 3.0 11.0 0.00 0.00 0.00 67 1016.4
20260902190535 90 95 4.0 12.0 0.00 0.00 0.00 66 1016.2
20260902185534 91 72 3.0 14.0 0.00 0.00 0.00 65 1016.5
20260902185035 91 80 4.0 14.0 0.00 0.00 0.00 64 1016.6
20260902184556 92 336 6.0 11.0 0.00 0.00 0.00 64 1016.9
20260902184038 92 85 4.0 11.0 0.00 0.00 0.00 63 1016.9
20260902183538 92 48 3.0 8.0 0.00 0.00 0.00 62 1016.9
20260902183113 92 41 2.0 6.0 0.00 0.00 0.00 63 1016.8
20260902182538 92 44 2.0 7.0 0.00 0.00 0.00 63 1016.7
20260902182035 92 58 2.0 8.0 0.00 0.00 0.00 62 1016.6
20260902181613 92 57 2.0 8.0 0.00 0.00 0.00 63 1016.5
20260902181037 92 101 1.0 8.0 0.00 0.00 0.00 65 1016.5
20260902180537 92 68 2.0 8.0 0.00 0.00 0.00 63 1016.6
20260902180104 92 22 2.0 6.0 0.00 0.00 0.00 63 1016.7
20260902175539 92 81 1.0 5.0 0.00 0.00 0.00 61 1016.8
20260902175043 93 34 2.0 5.0 0.00 0.00 0.00 63 1016.8
20260902174601 92 30 0.0 6.0 0.00 0.00 0.00 62 1016.9
20260902174034 92 153 1.0 7.0 0.00 0.00 0.00 62 1016.9
20260902173535 92 57 1.0 7.0 0.00 0.00 0.00 63 1016.9
20260902173119 92 355 1.0 5.0 0.00 0.00 0.00 62 1017.0
20260902172538 92 48 2.0 5.0 0.00 0.00 0.00 64 1017.0
20260902172041 92 53 2.0 5.0 0.00 0.00 0.00 63 1016.9
20260902171606 92 137 1.0 4.0 0.00 0.00 0.00 62 1017.0
20260902171039 91 70 2.0 5.0 0.00 0.00 0.00 63 1017.1
20260902170537 91 51 2.0 5.0 0.00 0.00 0.00 62 1017.1
20260902165538 91 51 2.0 8.0 0.00 0.00 0.00 64 1017.2
20260902165036 91 69 1.0 5.0 0.00 0.00 0.00 64 1017.3
20260902164606 91 0 0.0 8.0 0.00 0.00 0.00 63 1017.3
20260902164035 91 52 2.0 8.0 0.00 0.00 0.00 64 1017.2
20260902163535 91 54 2.0 8.0 0.00 0.00 0.00 65 1017.2
20260902163053 91 47 0.0 4.0 0.00 0.00 0.00 64 1017.3
20260902162539 91 64 1.0 5.0 0.00 0.00 0.00 62 1017.2
20260902162038 91 147 3.0 5.0 0.00 0.00 0.00 63 1017.3
20260902161603 91 188 1.0 4.0 0.00 0.00 0.00 61 1017.3
20260902161036 91 70 0.0 3.0 0.00 0.00 0.00 64 1017.2
20260902160537 90 0 0.0 3.0 0.00 0.00 0.00 63 1017.2
20260902160057 90 0 0.0 3.0 0.00 0.00 0.00 64 1017.2
20260902155535 90 0 1.0 7.0 0.00 0.00 0.00 64 1017.2
20260902155038 90 72 2.0 7.0 0.00 0.00 0.00 64 1017.1
20260902154558 90 55 0.0 6.0 0.00 0.00 0.00 64 1017.2
20260902154035 89 59 1.0 7.0 0.00 0.00 0.00 65 1017.2
20260902153537 90 105 2.0 8.0 0.00 0.00 0.00 66 1017.2
20260902153107 90 71 2.0 8.0 0.00 0.00 0.00 66 1017.2
20260902152541 89 0 0.0 4.0 0.00 0.00 0.00 65 1017.2
20260902152039 89 76 1.0 4.0 0.00 0.00 0.00 66 1017.3
20260902151602 89 0 0.0 4.0 0.00 0.00 0.00 67 1017.3
20260902151037 88 52 1.0 4.0 0.00 0.00 0.00 68 1017.2
20260902150538 88 9 0.0 5.0 0.00 0.00 0.00 68 1017.3
20260902150101 88 0 1.0 5.0 0.00 0.00 0.00 68 1017.4
20260902145539 88 123 1.0 5.0 0.00 0.00 0.00 69 1017.4
20260902145038 88 72 1.0 4.0 0.00 0.00 0.00 68 1017.4
20260902144602 88 76 1.0 5.0 0.00 0.00 0.00 69 1017.4
20260902144038 87 43 1.0 5.0 0.00 0.00 0.00 70 1017.4
20260902143540 87 343 0.0 2.0 0.00 0.00 0.00 71 1017.4
20260902143103 87 0 0.0 2.0 0.00 0.00 0.00 72 1017.4
20260902142537 87 0 0.0 2.0 0.00 0.00 0.00 72 1017.4
20260902142038 86 33 0.0 2.0 0.00 0.00 0.00 73 1017.3
20260902141558 87 0 0.0 2.0 0.00 0.00 0.00 72 1017.1
20260902141037 87 0 0.0 2.0 0.00 0.00 0.00 72 1017.2
20260902140535 86 52 0.0 2.0 0.00 0.00 0.00 74 1017.1
20260902140057 86 0 0.0 2.0 0.00 0.00 0.00 74 1017.2
20260902135535 86 0 0.0 3.0 0.00 0.00 0.00 75 1017.3
20260902135035 85 0 0.0 3.0 0.00 0.00 0.00 75 1017.2
20260902134610 85 0 0.0 0.0 0.00 0.00 0.00 76 1017.1
20260902134038 85 0 0.0 0.0 0.00 0.00 0.00 76 1017.1
20260902133538 85 0 0.0 0.0 0.00 0.00 0.00 77 1017.1
20260902133104 84 0 0.0 0.0 0.00 0.00 0.00 78 1017.1
20260902132535 84 0 0.0 0.0 0.00 0.00 0.00 77 1017.1
20260902132038 84 0 0.0 3.0 0.00 0.00 0.00 78 1017.0
20260902131559 83 0 0.0 3.0 0.00 0.00 0.00 79 1017.0
20260902131036 83 55 0.0 3.0 0.00 0.00 0.00 80 1016.9
20260902130537 83 0 0.0 0.0 0.00 0.00 0.00 80 1017.0
20260902130107 83 0 0.0 0.0 0.00 0.00 0.00 80 1016.9
20260902125538 82 0 0.0 0.0 0.00 0.00 0.00 80 1016.9
20260902125037 82 0 0.0 0.0 0.00 0.00 0.00 81 1016.9
20260902124554 82 0 0.0 0.0 0.00 0.00 0.00 81 1017.0
20260902124038 81 0 0.0 0.0 0.00 0.00 0.00 81 1016.8
20260902123536 81 0 0.0 0.0 0.00 0.00 0.00 82 1016.8
20260902123109 80 0 0.0 0.0 0.00 0.00 0.00 83 1017.0
20260902122538 80 0 0.0 0.0 0.00 0.00 0.00 84 1017.0
20260902122035 79 0 0.0 0.0 0.00 0.00 0.00 85 1017.0
20260902121558 79 0 0.0 0.0 0.00 0.00 0.00 86 1017.0
20260902121035 79 0 0.0 0.0 0.00 0.00 0.00 87 1017.2
20260902120535 78 0 0.0 0.0 0.00 0.00 0.00 90 1017.1
20260902120057 77 0 0.0 0.0 0.00 0.00 0.00 91 1017.1
20260902115537 77 0 0.0 0.0 0.00 0.00 0.00 91 1017.1
20260902115035 76 0 0.0 0.0 0.00 0.00 0.00 93 1017.0
20260902114600 75 0 0.0 0.0 0.00 0.00 0.00 93 1017.0
20260902114035 75 0 0.0 0.0 0.00 0.00 0.00 94 1017.0
20260902113535 75 0 0.0 0.0 0.00 0.00 0.00 94 1017.0
20260902113101 75 0 0.0 0.0 0.00 0.00 0.00 94 1017.0
20260902112536 75 0 0.0 0.0 0.00 0.00 0.00 93 1017.0
20260902112036 75 0 0.0 0.0 0.00 0.00 0.00 93 1017.0
20260902111602 75 0 0.0 0.0 0.00 0.00 0.00 93 1017.0
20260902111037 75 0 0.0 0.0 0.00 0.00 0.00 93 1017.0
20260902110538 75 0 0.0 0.0 0.00 0.00 0.00 93 1017.0
20260902110105 75 0 0.0 0.0 0.00 0.00 0.00 93 1016.8
20260902105535 75 0 0.0 0.0 0.00 0.00 0.00 93 1016.9
20260902105035 75 0 0.0 0.0 0.00 0.00 0.00 93 1016.9
20260902104610 75 0 0.0 0.0 0.00 0.00 0.00 93 1016.8
20260902104036 75 0 0.0 0.0 0.00 0.00 0.00 92 1016.8
20260902103537 75 0 0.0 0.0 0.00 0.00 0.00 92 1016.8
20260902103119 75 0 0.0 0.0 0.00 0.00 0.00 92 1016.7
20260902102536 75 0 0.0 0.0 0.00 0.00 0.00 90 1016.7
20260902102036 75 0 0.0 0.0 0.00 0.00 0.00 91 1016.6
20260902101606 75 0 0.0 0.0 0.00 0.00 0.00 91 1016.4
20260902101035 75 0 0.0 0.0 0.00 0.00 0.00 91 1016.4
20260902100536 75 0 0.0 0.0 0.00 0.00 0.00 90 1016.4
20260902100056 76 0 0.0 0.0 0.00 0.00 0.00 90 1016.4
20260902095536 76 0 0.0 0.0 0.00 0.00 0.00 91 1016.3
20260902095038 76 0 0.0 0.0 0.00 0.00 0.00 91 1016.3
20260902094601 76 0 0.0 0.0 0.00 0.00 0.00 92 1016.3
20260902094035 76 0 0.0 0.0 0.00 0.00 0.00 92 1016.3
20260902093538 76 0 0.0 0.0 0.00 0.00 0.00 92 1016.2
20260902093100 76 0 0.0 0.0 0.00 0.00 0.00 92 1016.1
20260902092536 76 0 0.0 0.0 0.00 0.00 0.00 93 1016.1
20260902092035 76 0 0.0 0.0 0.00 0.00 0.00 93 1016.1
20260902091556 76 0 0.0 0.0 0.00 0.00 0.00 93 1016.2
20260902091038 76 0 0.0 0.0 0.00 0.00 0.00 93 1016.1
20260902090538 76 0 0.0 0.0 0.00 0.00 0.00 93 1016.2
20260902090058 76 0 0.0 0.0 0.00 0.00 0.00 93 1016.2
20260902085537 76 0 0.0 0.0 0.00 0.00 0.00 93 1016.2
20260902085035 76 0 0.0 0.0 0.00 0.00 0.00 93 1016.2
20260902084559 76 0 0.0 0.0 0.00 0.00 0.00 93 1016.2
20260902084036 76 0 0.0 0.0 0.00 0.00 0.00 93 1016.1
20260902083539 76 0 0.0 0.0 0.00 0.00 0.00 93 1016.0
20260902083057 76 0 0.0 0.0 0.00 0.00 0.00 92 1016.0
20260902082535 76 0 0.0 0.0 0.00 0.00 0.00 92 1016.0
20260902082035 76 0 0.0 0.0 0.00 0.00 0.00 93 1016.0
20260902081603 76 0 0.0 0.0 0.00 0.00 0.00 92 1016.0
20260902081038 76 0 0.0 0.0 0.00 0.00 0.00 92 1016.0
20260902080538 76 0 0.0 0.0 0.00 0.00 0.00 92 1016.1
20260902075538 76 0 0.0 0.0 0.00 0.00 0.00 93 1016.1
20260902075035 76 0 0.0 0.0 0.00 0.00 0.00 93 1016.1
20260902074600 76 0 0.0 0.0 0.00 0.00 0.00 93 1016.0
20260902074035 76 0 0.0 0.0 0.00 0.00 0.00 93 1016.1
20260902073535 76 0 0.0 0.0 0.00 0.00 0.00 93 1016.1
20260902073108 77 0 0.0 0.0 0.00 0.00 0.00 94 1016.1
20260902072538 77 0 0.0 0.0 0.00 0.00 0.00 93 1016.1
20260902072041 77 0 0.0 0.0 0.00 0.00 0.00 93 1016.1
20260902071557 77 0 0.0 0.0 0.00 0.00 0.00 93 1016.1
20260902071038 77 0 0.0 0.0 0.00 0.00 0.00 93 1016.0
20260902070535 77 0 0.0 0.0 0.00 0.00 0.00 93 1015.9
20260902070103 77 0 0.0 0.0 0.00 0.00 0.00 93 1015.9
20260902065539 77 0 0.0 0.0 0.00 0.00 0.00 93 1016.0
20260902065038 77 0 0.0 0.0 0.00 0.00 0.00 93 1016.0
20260902064605 77 0 0.0 0.0 0.00 0.00 0.00 93 1015.9
20260902064041 77 0 0.0 0.0 0.00 0.00 0.00 93 1015.8
20260902063537 77 0 0.0 0.0 0.00 0.00 0.00 93 1015.7
20260902063109 77 0 0.0 0.0 0.00 0.00 0.00 93 1015.8
20260902062538 77 0 0.0 0.0 0.00 0.00 0.00 92 1015.8
20260902062039 77 0 0.0 0.0 0.00 0.00 0.00 93 1015.8
20260902061620 77 0 0.0 0.0 0.00 0.00 0.00 93 1015.7
20260902061044 77 0 0.0 0.0 0.00 0.00 0.00 93 1015.7
20260902060537 78 0 0.0 0.0 0.00 0.00 0.00 93 1015.7
20260902060109 78 0 0.0 0.0 0.00 0.00 0.00 93 1015.6
20260902055537 78 0 0.0 0.0 0.00 0.00 0.00 93 1015.6
20260902055036 78 0 0.0 0.0 0.00 0.00 0.00 93 1015.6
20260902054559 78 0 0.0 0.0 0.00 0.00 0.00 93 1015.5
20260902054037 78 0 0.0 0.0 0.00 0.00 0.00 93 1015.4
20260902053536 78 0 0.0 0.0 0.00 0.00 0.00 93 1015.5
20260902053102 78 0 0.0 0.0 0.00 0.00 0.00 92 1015.4
20260902052534 78 0 0.0 0.0 0.00 0.00 0.00 93 1015.5
20260902052036 78 0 0.0 0.0 0.00 0.00 0.00 92 1015.5
20260902051615 78 0 0.0 0.0 0.00 0.00 0.00 92 1015.6
20260902051036 78 0 0.0 0.0 0.00 0.00 0.00 92 1015.5
20260902050536 78 0 0.0 0.0 0.00 0.00 0.00 92 1015.5
20260902050107 78 0 0.0 0.0 0.00 0.00 0.00 92 1015.6
20260902045535 78 0 0.0 0.0 0.00 0.00 0.00 92 1015.7
20260902045037 78 0 0.0 0.0 0.00 0.00 0.00 92 1015.7
20260902044626 79 0 0.0 0.0 0.00 0.00 0.00 92 1015.6
20260902044035 79 0 0.0 0.0 0.00 0.00 0.00 92 1015.6
20260902043535 79 0 0.0 0.0 0.00 0.00 0.00 92 1015.7
20260902043056 79 0 0.0 0.0 0.00 0.00 0.00 91 1015.7
20260902042535 79 0 0.0 0.0 0.00 0.00 0.00 92 1015.7
20260902042037 79 0 0.0 0.0 0.00 0.00 0.00 92 1015.7
20260902041604 79 0 0.0 0.0 0.00 0.00 0.00 92 1015.7
20260902041034 79 0 0.0 0.0 0.00 0.00 0.00 92 1015.6
20260902040536 79 0 0.0 0.0 0.00 0.00 0.00 91 1015.5
20260902040104 79 0 0.0 0.0 0.00 0.00 0.00 91 1015.5
20260902035535 79 0 0.0 0.0 0.00 0.00 0.00 91 1015.5
20260902035035 79 0 0.0 0.0 0.00 0.00 0.00 91 1015.4
20260902034601 79 0 0.0 0.0 0.00 0.00 0.00 91 1015.3
20260902034035 79 0 0.0 0.0 0.00 0.00 0.00 91 1015.3
20260902033536 79 0 0.0 0.0 0.00 0.00 0.00 90 1015.3
20260902033104 79 0 0.0 0.0 0.00 0.00 0.00 90 1015.2
20260902032535 79 0 0.0 0.0 0.00 0.00 0.00 90 1015.1
20260902032036 79 0 0.0 0.0 0.00 0.00 0.00 90 1015.1
20260902031619 80 0 0.0 0.0 0.00 0.00 0.00 90 1015.1
20260902031036 80 0 0.0 0.0 0.00 0.00 0.00 90 1014.9
20260902030541 80 0 0.0 0.0 0.00 0.00 0.00 89 1015.0
20260902025537 80 0 0.0 0.0 0.00 0.00 0.00 89 1015.1
20260902025036 80 0 0.0 0.0 0.00 0.00 0.00 89 1015.1
20260902024602 80 0 0.0 0.0 0.00 0.00 0.00 89 1015.1
20260902024035 80 0 0.0 0.0 0.00 0.00 0.00 88 1015.2
20260902023536 80 0 0.0 0.0 0.00 0.00 0.00 88 1015.1
20260902023106 80 0 0.0 0.0 0.00 0.00 0.00 88 1015.0
20260902022535 81 0 0.0 0.0 0.00 0.00 0.00 88 1014.9
20260902022034 81 0 0.0 0.0 0.00 0.00 0.00 88 1014.9
20260902021603 81 0 0.0 0.0 0.00 0.00 0.00 87 1014.8